User: anonymous   Login
Location: Unspecified
(0.0000°N, 0.0000°E)
Time: 03:39:53
(UTC+00:00)
Language:

HuskySat-1 - Orbit

View from above orbital plane
View from above orbital plane
View from above satellite
View from above satellite

Ground track
Ground track

The orbit data is extracted from the following two-line orbital elements,

1 45117U 19071G   21289.39501516  .00007720  00000-0  21420-3 0  9996
2 45117  51.6407 168.3897 0009274  16.5884 343.5401 15.37864771 95787
Epoch (UTC): 16 October 2021 09:28:49
Eccentricity: 0.0009274
inclination: 51.6407°
perigee height: 446 km
apogee height: 459 km
right ascension of ascending node: 168.3897°
argument of perigee: 16.5884°
revolutions per day: 15.37864771
mean anomaly at epoch: 343.5401°
orbit number at epoch: 9578

The dashed part of the orbit path shows where the satellite is in the earth's shadow,  

DLR